Terug naar catalogus

STARLINK-6153

ActiefCommunicatieVLEO
NORAD 56384·PAYLOAD·🇺🇸 United States

Gelanceerd May 4, 2023 vanaf Cape Canaveral Space Force Station

Loading…

Volgende Passages (komende 24 uur)

TLE

VersSource: CelesTrak SupGP

Epoch: Sep 15, 2026, 02:39 UTC

1 56384C 23061L   26258.11090278 -.00014582  00000+0 -52828-3 0  2586
2 56384  42.9995 208.3009 0001110 262.3917 232.7481 15.27579541    15

Volg STARLINK-6153 in realtime met AllMySat

Download on the App Store